This demonstration page uses our WeatherBlox Daily Observations layout. Learn more.

Left ArrowRight Arrow

36.17497, -115.13722

Hourly Observations for March 7, 2016

Temp ( °F °C ) Dew Point ( °F °C ) Humidity (%) Winds ( mph kmh ) Pressure ( in mb ) Visibility ( mi km ) Precip ( " mm )
12:53 am 00:53 Clear 46 7.8 33 0.6 61 61 Calm 29.87 1011 10 16.0934 0 0
1:53 am 01:53 Clear 45 7.2 34 1.1 66 66 Calm 29.84 1010 10 16.0934 0 0
2:53 am 02:53 Clear 44 6.7 33 0.6 65 65 N 3 6 29.82 1010 10 16.0934 0 0
3:53 am 03:53 Clear 44 6.7 30 -1.1 58 58 E 7 11 29.82 1010 10 16.0934 0 0
4:53 am 04:53 Clear 43 6.1 30 -1.1 60 60 W 3 6 29.82 1010 10 16.0934 0 0
5:53 am 05:53 Clear 44 6.7 30 -1.1 58 58 W 3 6 29.81 1010 10 16.0934 0 0
6:53 am 06:53 Sunny 46 7.8 29 -1.7 51 51 ESE 3 6 29.82 1010 10 16.0934 0 0
7:53 am 07:53 Sunny 49 9.4 28 -2.2 44 44 SE 9 15 29.81 1010 10 16.0934 0 0
8:53 am 08:53 Sunny 52 11.1 28 -2.2 40 40 SE 7 11 29.8 1009 10 16.0934 0 0
9:53 am 09:53 Sunny 56 13.3 26 -3.3 32 32 SE 8 13 29.78 1009 10 16.0934 0 0
10:53 am 10:53 Partly Cloudy 57 13.9 24 -4.4 28 28 S 12 19 29.78 1009 10 16.0934 0 0
11:53 am 11:53 Sunny 57 13.9 27 -2.8 32 32 SW 12 19 29.77 1008 10 16.0934 0 0
12:53 pm 12:53 Sunny 56 13.3 26 -3.3 32 32 SW 5 7 29.75 1007 10 16.0934 0 0
1:53 pm 13:53 Sunny 58 14.4 26 -3.3 29 29 SW 8 13 29.71 1006 10 16.0934 0 0
2:53 pm 14:53 Mostly Sunny 58 14.4 26 -3.3 29 29 Calm 29.7 1006 10 16.0934 0 0
3:53 pm 15:53 Mostly Cloudy 58 14.4 25 -3.9 28 28 Calm 29.69 1005 10 16.0934 0 0
4:53 pm 16:53 Cloudy 56 13.3 30 -1.1 37 37 W 14 22 29.7 1006 10 16.0934 0 0
5:53 pm 17:53 Mostly Cloudy 55 12.8 30 -1.1 38 38 WSW 6 9 29.72 1007 10 16.0934 0 0
6:53 pm 18:53 Mostly Cloudy 54 12.2 32 0 43 43 NNE 7 11 29.75 1007 10 16.0934 0 0
7:53 pm 19:53 Clear 52 11.1 34 1.1 50 50 NNW 13 20 29.77 1008 10 16.0934 0 0
8:53 pm 20:53 Clear 50 10 35 1.7 57 57 NNW 20 31 29.79 1009 10 16.0934 0 0
9:53 pm 21:53 Mostly Clear 49 9.4 35 1.7 59 59 N 18 30 29.8 1009 10 16.0934 0 0
10:53 pm 22:53 Mostly Cloudy 50 10 35 1.7 57 57 N 15 24 29.83 1010 10 16.0934 0 0
11:53 pm 23:53 Cloudy 50 10 34 1.1 54 54 NNW 14 22 29.83 1010 10 16.0934 0 0

Powered by AerisWeather